User: anonymous   Login
Location: Sun City Center
(27.6996°N, 82.3528°W)
Time: 07:22:38
(UTC-05:00)
Language:

Cosmos 2084 Rocket - Orbit

View from above orbital plane
View from above orbital plane
View from above satellite
View from above satellite

Ground track
Ground track

The orbit data is extracted from the following two-line orbital elements,

1 20666U 90055D   17056.55510692  .00000240  00000-0  37786-4 0  9992
2 20666  62.7839 159.7782 0135526  98.1554 263.4938 14.91842026444521
Epoch (UTC): 25 February 2017 13:19:21
Eccentricity: 0.0135526
inclination: 62.7839°
perigee height: 498 km
apogee height: 686 km
right ascension of ascending node: 159.7782°
argument of perigee: 98.1554°
revolutions per day: 14.91842026
mean anomaly at epoch: 263.4938°
orbit number at epoch: 44452

The dashed part of the orbit path shows where the satellite is in the earth's shadow,  

DLR